sat.trackr.live / text

‹ back to catalog

O3B MPOWER F2

NORAD 54756 · 2022-174B

PAYLOAD ACTIVE UNKNOWN

§ Identity

Operator
Country
O3B
Launch date
2022-12-16
Launch site
AFETR
Launch vehicle
Mass (kg)
RCS (m²)

Purposes: comms

External: N2YO · Heavens-Above · Gunter

§ Orbital elements

Epoch: 2026-05-24T22:08:51.734400Z

Period
287.93 min
Inclination
0.0516°
Eccentricity
0.0005927
Mean motion
5.00115194 rev/d
Perigee alt
8,057.3 km
Apogee alt
8,074.5 km
Semi-major
14,444.0 km
B*
0.0000e+0
RAAN
342.8130°
Arg perigee
77.1252°
Mean anomaly
300.1199°
Rev number
6,428

§ Raw data

O3B MPOWER F21 54756U 22174B   26144.92282100 -.00000024  00000+0  00000+0 0  99992 54756   0.0516 342.8130 0005927  77.1252 300.1199  5.00115194 64288

JSON: /api/v1/satellites/54756 · /tle

For live sub-satellite position, see the globe view (requires WebGL).

§ Visibility from observer

Set your observer location to see the next 7 days of passes ≥ 10°. The values pass through the URL so the page stays shareable.

No JS? Fill the form by hand. The geolocation button needs JavaScript.